Home   Weather   Langenthal   Past weeks

Flag for Switzerland Past Weather in Langenthal, Bern, Switzerland — Yesterday and Last 2 Weeks

Now
48 °F

Cool.


Feels Like: 46 °F
Forecast: 36 / 44 °F
Wind: 5 mph from Southwest

Location: Wynau

Current Time: Apr 25, 2017 at 6:27:15 pm

Latest Report: Apr 25, 2017 at 5:00 pm


Visibility: N/A

Pressure: 29.79 "Hg

Humidity: 92%

Dew Point: 46 °F

Location of LangenthalLocation

Past Weather in Langenthal — Graph

°F

Langenthal Temperature Yesterday

Maximum temperature yesterday: 68 °F (at 5:00 pm)
Minimum temperature yesterday: 33 °F (at 6:00 am)
Average temperature yesterday: 50 °F

High & Low Weather Summary for the Past Weeks

 TemperatureHumidityPressure
High75 °F (Apr 10, 5:00 pm)99% (Apr 17, 7:00 am)30.57 "Hg (Apr 17, 7:00 am)
Low25 °F (Apr 21, 6:00 am)22% (Apr 10, 5:00 pm)29.75 "Hg (Apr 25, 1:00 pm)
Average48 °F65%30.18 "Hg
* Reported Apr 10 4:00 pm — Apr 25 4:00 pm, Langenthal, Weather by CustomWeather, © 2017

Note: Actual official high and low records may vary slightly from our data, if they occured in-between our weather recording intervals... More about our weather records

Advertising

Langenthal Weather History for the Previous 24 Hours

Scroll right to see more
 ConditionsComfort  
Time TempWeatherWind HumidityBarometerVisibility
4:00 pm
Tue, Apr 25
49 °FCool.6 mph88%29.80 "HgN/A
3:00 pm51 °FCool.8 mph86%29.81 "HgN/A
2:00 pm52 °FCool.12 mph75%29.80 "HgN/A
1:00 pm59 °FRefreshingly cool.3 mph59%29.75 "HgN/A
12:00 pm59 °FRefreshingly cool.7 mph58%29.75 "HgN/A
11:00 am56 °FCool.1 mph77%29.78 "HgN/A
10:00 am54 °FCool.1 mph81%29.78 "HgN/A
9:00 am53 °FCool.1 mph90%29.78 "HgN/A
8:00 am51 °FCool.2 mph95%29.79 "HgN/A
7:00 am49 °FCool.2 mph98%29.79 "HgN/A
6:00 am49 °FCool.1 mph99%29.79 "HgN/A
5:00 am50 °FCool.1 mph96%29.80 "HgN/A
4:00 am52 °FCool.6 mph88%29.80 "HgN/A
3:00 am52 °FCool.8 mph85%29.83 "HgN/A
2:00 am48 °FCool.3 mph84%29.85 "HgN/A
1:00 am47 °FCool.1 mph85%29.85 "HgN/A
12:00 am47 °FCool.No wind81%29.85 "HgN/A
11:00 pm
Mon, Apr 24
49 °FCool.1 mph76%29.86 "HgN/A
10:00 pm52 °FCool.1 mph60%29.85 "HgN/A
9:00 pm57 °FRefreshingly cool.1 mph54%29.83 "HgN/A
8:00 pm64 °FMild.2 mph42%29.81 "HgN/A
7:00 pm68 °FMild.5 mph31%29.80 "HgN/A
6:00 pm68 °FMild.5 mph33%29.83 "HgN/A
Weather by CustomWeather, © 2017

See weather overviewHow to use our weather pages